CAPE
0 1 0 0 1 1 2 0 0 0 0 0 0 0 0 0 0 0 0 0 0 0 0 0 0 0 0 0 0 0 0 0 0 0 0 0 0 0 0 0 0 0 0 0 0 0 0
0 0 0 0 2 3 0 0 0 0 0 0 0 0 0 0 0 0 0 0 0 0 0 0 0 0 0 0 0 0 0 0 0 0 0 0 0 0 0 0 0 0 0 0 0 0 0
0 0 0 0 0 0 0 0 0 0 0 0 0 0 0 0 0 0 0 0 0 0 0 0 0 0 0 0 0 0 0 0 0 0 0 0 0 0 0 0 0 0 0 0 0 0 0
0 0 1 1 0 0 0 0 0 0 0 0 0 0 0 0 0 0 0 0 0 0 0 0 0 0 0 0 0 0 0 0 0 0 0 0 0 0 0 0 0 0 0 0 0 0 0
9 12 12 10 11 5 3 0 0 0 0 0 0 0 0 0 0 0 0 0 0 0 0 0 0 0 0 0 0 0 0 0 0 0 0 0 0 0 0 0 0 0 0 0 0 0 0
0 0 0 2 3 18 15 11 5 4 2 0 0 0 0 0 0 0 0 0 0 0 0 0 0 0 0 0 0 0 0 0 0 0 0 0 0 0 0 0 0 0 0 0 0 0 0
1 0 0 0 0 0 1 1 0 6 5 4 0 0 0 0 0 0 0 0 0 0 0 0 0 0 0 0 0 0 0 0 0 0 0 0 0 0 0 0 0 0 0 0 0 0 0
0 0 0 0 0 0 0 0 0 0 6 13 6 0 0 0 0 0 0 0 0 0 0 0 0 0 0 0 0 0 0 0 0 0 0 0 0 0 0 0 0 0 0 0 0 0 0
0 0 0 0 0 0 0 0 0 0 0 3 7 4 0 0 0 0 0 0 0 0 0 0 0 0 0 0 0 0 0 0 0 0 0 0 0 0 0 0 0 0 0 0 0 0 0
0 1 0 0 0 0 0 0 0 0 0 1 1 2 0 0 0 0 0 0 0 0 0 0 0 0 0 0 0 0 0 0 0 0 0 0 0 0 0 0 0 0 0 0 0 0 0
0 0 4 1 0 0 0 0 0 0 0 0 0 1 0 0 0 0 0 0 0 0 0 0 0 0 0 0 0 0 0 0 0 0 0 0 0 0 0 0 0 0 0 0 0 0 0
0 0 0 0 0 0 0 1 1 0 0 0 0 1 0 1 0 0 0 0 0 0 0 0 0 0 0 0 0 0 0 0 0 0 0 0 0 0 0 0 0 0 0 0 0 0 0
0 0 0 0 0 0 0 0 0 0 0 0 0 0 0 0 0 0 0 0 0 0 0 0 0 0 0 0 0 0 0 0 0 0 0 0 0 0 0 0 0 0 0 0 0 0 0
15 10 1 0 0 0 0 0 0 0 0 0 0 1 2 0 0 0 0 0 0 0 0 0 0 0 0 0 0 0 0 0 0 0 0 0 0 0 0 0 0 0 0 0 0 0 0
16 25 19 20 13 7 12 0 1 0 0 0 0 0 0 0 0 0 0 0 0 0 0 0 0 0 0 0 0 0 0 0 0 0 0 0 0 0 0 0 0 0 0 0 0 0 0
9 14 16 18 10 25 19 3 0 0 0 0 0 0 0 0 0 0 2 0 0 0 0 0 0 0 0 0 0 0 0 0 0 0 0 0 0 0 0 0 0 0 0 0 0 0 0
19 20 18 17 19 11 16 12 0 0 0 0 0 12 0 0 0 0 3 0 0 0 0 0 0 0 0 0 4 6 1 0 0 0 0 0 0 0 0 0 0 0 0 0 0 0 0
10 16 16 18 22 4 10 9 1 0 0 6 10 0 0 0 2 2 6 2 3 3 12 16 5 0 0 0 0 0 0 1 5 0 0 0 0 0 0 0 0 0 0 0 0 0 0
6 4 30 22 13 4 3 6 7 0 19 0 0 8 0 0 1 0 0 0 4 12 9 0 1 5 7 1 0 1 12 20 3 0 0 0 0 0 0 0 0 0 0 0 0 0 0
16 8 14 20 4 0 3 2 1 1 6 0 2 1 1 0 4 6 0 0 0 11 5 1 6 3 2 2 1 10 0 0 0 0 0 0 0 0 0 0 0 0 0 0 0 0 0
16 3 13 17 17 7 1 0 0 0 0 2 0 1 4 10 4 0 1 1 0 2 10 6 1 2 1 7 9 2 4 4 0 0 7 0 0 0 0 0 0 0 0 0 0 0 0
16 4 14 5 0 8 1 0 0 1 1 5 0 1 13 16 9 14 5 0 1 1 2 0 6 3 3 4 1 3 6 0 8 0 7 0 1 2 0 0 1 0 0 0 0 0 0
18 14 7 9 1 0 10 0 0 0 14 0 0 1 8 8 0 0 2 2 0 5 4 6 7 2 0 0 0 0 0 0 2 1 2 2 0 0 0 0 1 0 0 0 0 0 0
23 24 25 25 19 5 5 6 0 2 29 2 0 8 8 4 3 0 0 2 1 1 8 8 9 8 0 0 1 0 0 0 0 0 2 2 1 0 0 0 0 0 0 0 0 0 0
24 25 29 34 32 20 13 8 10 13 3 30 0 5 2 1 9 0 0 0 0 0 12 0 0 0 0 0 0 0 0 0 0 1 0 2 1 0 0 0 0 0 0 0 0 0 0
31 36 37 42 30 15 2 1 4 0 4 12 27 8 14 0 0 4 2 0 0 0 0 2 0 1 0 0 1 0 1 0 0 0 0 0 0 0 0 0 0 0 0 0 0 0 0
31 39 45 49 30 18 18 15 36 18 1 21 15 17 13 4 0 0 2 8 6 1 0 0 0 0 1 0 0 0 0 3 0 0 0 0 0 0 0 0 0 0 0 0 0 0 0
49 50 52 50 36 18 14 18 33 47 46 45 9 5 2 1 0 2 2 3 0 0 0 0 0 0 0 0 0 8 1 0 0 1 0 0 0 0 0 0 0 0 0 0 0 0 0
67 46 51 19 35 10 17 21 8 32 98 53 15 2 7 23 1 1 1 0 0 0 0 0 0 0 5 0 0 0 1 0 0 0 0 0 0 0 0 0 0 0 0 0 0 0 0
CIN
0 0 0 0 0 0 0 0 0 0 0 0 0 0 0 0 0 0 0 0 0 0 0 0 0 0 0 0 0 0 0 0 0 0 0 0 0 0 0 0 0 0 0 0 0 0 0
0 0 0 0 0 0 0 0 0 0 0 0 0 0 0 0 0 0 0 0 0 0 0 0 0 0 0 0 0 0 0 0 0 0 0 0 0 0 0 0 0 0 0 0 0 0 0
0 0 0 0 0 0 0 0 0 0 0 0 0 0 0 0 0 0 0 0 0 0 0 0 0 0 0 0 0 0 0 0 0 0 0 0 0 0 0 0 0 0 0 0 0 0 0
0 0 0 0 0 0 0 0 0 0 0 0 0 0 0 0 0 0 0 0 0 0 0 0 0 0 0 0 0 0 0 0 0 0 0 0 0 0 0 0 0 0 0 0 0 0 0
0 -2 -2 -3 0 -3 -2 -4 -6 0 0 0 0 0 0 0 0 0 0 0 0 0 0 0 0 0 0 0 0 0 0 0 0 0 0 0 0 0 0 0 0 0 0 0 0 0 0
0 0 -14 -29 0 0 0 0 -4 -8 -7 0 0 0 0 0 0 0 0 0 0 0 0 0 0 0 0 0 0 0 0 0 0 0 0 0 0 0 0 0 0 0 0 0 0 0 0
0 0 0 0 0 0 -25 -16 -2 -11 -7 -12 0 0 0 0 0 0 0 0 0 0 0 0 0 0 0 0 0 0 0 0 0 0 0 0 0 0 0 0 0 0 0 0 0 0 0
0 0 0 0 0 0 0 0 0 0 -9 -14 -21 -8 0 0 0 0 0 0 0 0 0 0 0 0 0 0 0 0 0 0 0 0 0 0 0 0 0 0 0 0 0 0 0 0 0
0 0 0 0 0 0 0 0 0 0 0 -2 -9 -24 0 0 0 0 0 0 0 0 0 0 0 0 0 0 0 0 0 0 0 0 0 0 0 0 0 0 0 0 0 0 0 0 0
0 0 0 0 0 0 0 0 0 0 0 -2 -3 -2 0 0 0 0 0 0 0 0 0 0 0 0 0 0 0 0 0 0 0 0 0 0 0 0 0 0 0 0 0 0 0 0 0
0 0 0 0 0 0 0 0 0 0 0 0 -1 -1 0 0 0 0 0 0 0 0 0 0 0 0 0 0 0 0 0 0 0 0 0 0 0 0 0 0 0 0 0 0 0 0 0
0 0 0 0 0 0 0 0 0 0 0 0 0 -1 0 -2 0 0 0 0 0 0 0 0 0 0 0 0 0 0 0 0 0 0 0 0 0 0 0 0 0 0 0 0 0 0 0
0 0 0 0 0 0 0 0 0 0 0 0 0 -1 0 0 0 0 0 0 0 0 0 0 0 0 0 0 0 0 0 0 0 0 0 0 0 0 0 0 0 0 0 0 0 0 0
-1 -1 -2 0 0 0 0 0 0 0 0 0 0 0 -2 0 0 0 0 0 0 0 0 0 0 0 0 0 0 0 0 0 0 0 0 0 0 0 0 0 0 0 0 0 0 0 0
0 0 -2 -2 0 -2 0 0 0 0 0 0 0 -1 0 0 0 0 0 0 0 0 0 0 0 0 0 0 0 0 0 0 0 0 0 0 0 0 0 0 0 0 0 0 0 0 0
0 0 0 0 -3 0 0 -15 0 0 0 0 0 -1 0 0 0 0 -3 0 0 0 0 0 0 0 0 0 0 -2 0 0 0 0 0 0 0 0 0 0 0 0 0 0 0 0 0
0 0 0 0 0 -5 -4 -7 0 0 0 0 -1 -1 -2 0 0 -1 0 0 0 0 -2 -2 0 0 0 0 -8 -3 -3 0 0 0 0 0 0 0 0 0 0 0 0 0 0 0 0
-1 0 0 0 0 -7 -3 -7 -16 0 0 -7 -3 -1 0 0 -5 -10 -1 -1 -11 -3 -11 -12 -24 -1 -1 0 0 0 0 -2 -22 0 0 0 0 0 0 0 0 0 0 0 0 0 0
-1 0 0 0 -4 -9 -12 -11 -5 0 -2 0 -1 -2 -51 0 -1 0 -8 0 -6 -2 -2 -1 -4 -2 -12 -10 0 -17 -6 -10 -2 0 0 0 0 0 0 0 0 0 0 0 0 0 0
0 -2 -1 0 -2 0 -8 -11 -8 -3 -3 0 -3 -1 -5 0 -13 -5 0 0 0 -12 -16 -15 -2 -9 -13 0 -1 -1 -1 0 0 0 0 0 0 0 0 0 0 0 0 0 0 0 0
0 -1 0 0 0 -1 0 0 -3 -3 0 -7 -1 -2 -4 0 -5 0 -5 -8 0 0 -3 -6 -2 -1 -12 -1 -3 -2 -1 -3 0 0 -2 -3 0 0 0 0 0 0 0 0 0 0 0
0 -1 0 0 0 0 0 0 0 -16 -3 -2 0 -1 -3 -2 -2 -2 -9 -1 0 -1 -3 -1 -8 -28 -12 -1 -5 -2 -8 -1 -1 -2 -1 0 -4 -1 0 0 0 0 0 0 0 0 0
0 0 0 0 -1 0 -1 0 0 -4 -6 -1 -1 -1 -4 -1 0 0 0 -1 0 -2 -2 -8 -14 -9 0 0 0 0 0 -1 -1 0 0 -2 0 0 0 0 -2 0 0 0 0 0 0
0 0 0 0 0 -2 -3 -2 0 -23 -2 -3 -1 -3 -1 -1 -1 0 0 0 -1 -1 -1 -3 -6 -7 0 0 0 0 0 0 0 0 0 0 0 0 0 0 0 0 0 0 0 0 0
0 0 0 0 0 -1 -3 -3 -1 -6 -10 -1 -1 0 0 -1 -1 -1 0 0 0 -2 -6 0 -1 0 0 0 0 0 0 0 0 0 0 0 0 0 0 -1 0 0 0 0 0 0 0
0 0 0 0 0 -3 -2 -6 -3 0 -11 -6 -3 -3 -1 0 0 -3 0 0 0 0 0 -8 0 0 0 0 -2 0 -2 0 0 0 0 0 0 0 0 0 0 0 0 0 0 0 0
-1 0 0 0 -1 -2 -1 -4 0 -6 -13 -9 -4 -6 0 0 0 0 -1 -2 -4 0 0 0 0 0 0 0 -2 -2 -1 -13 0 0 0 0 0 0 0 0 0 0 0 0 0 0 0
0 0 0 -1 0 0 -1 -4 -8 -9 -11 -4 -5 -9 -1 0 0 0 -2 -1 0 0 0 0 0 0 0 0 0 -23 -7 -4 0 -3 0 0 0 0 0 0 0 0 0 0 0 0 0
0 0 0 -3 -2 0 0 -8 -8 -8 -3 -4 -3 -9 -2 0 -10 0 0 0 0 0 0 0 0 0 -20 -1 0 0 -1 -2 0 0 0 0 0 0 0 0 0 0 0 0 0 0 0
Wind_Speed
25 25 25 26 26 27 27 27 27 28 28 29 30 31 31 32 33 33 33 33 33 32 31 29 25 26 23 23 21 18 21 20 19 17 14 16 21 21 22 23 19 22 20 21 23 20 20
25 26 26 27 27 28 28 28 29 29 29 30 31 32 33 34 35 36 36 36 35 33 31 29 26 25 21 23 16 19 21 19 18 18 15 14 18 25 26 25 23 24 23 21 19 17 16
25 26 27 27 28 29 29 29 30 30 31 32 32 33 34 35 36 37 38 38 36 32 29 24 22 23 22 20 16 19 19 19 18 18 19 16 19 21 25 24 22 25 27 23 19 15 18
20 23 25 26 28 29 29 30 30 31 32 33 34 35 36 37 38 39 40 39 35 28 23 18 19 21 21 19 19 18 17 17 16 16 17 19 17 18 22 22 24 26 26 30 21 14 20
21 22 24 23 25 25 26 28 30 31 33 34 35 36 37 39 40 41 41 40 32 24 17 16 19 18 23 16 17 15 16 17 17 17 17 17 17 17 19 25 30 25 35 32 29 15 21
27 28 29 31 31 29 29 28 30 30 32 34 35 36 38 40 41 42 40 36 23 21 18 16 18 21 17 21 18 16 15 16 18 17 19 18 18 21 19 22 35 33 33 33 36 24 23
28 29 30 30 31 31 32 32 31 31 32 32 34 36 38 40 42 38 36 27 29 24 21 21 24 22 23 20 18 18 15 14 16 17 20 18 20 20 23 23 30 38 45 48 42 30 28
29 30 31 32 32 33 34 33 34 35 33 32 33 36 38 40 40 35 30 27 27 25 35 26 18 19 21 20 25 17 14 17 16 18 15 19 19 24 28 31 34 38 42 47 44 30 34
30 31 32 33 34 34 34 35 35 36 35 34 34 34 36 39 35 28 28 29 26 28 29 32 22 22 18 14 17 17 10 16 18 18 18 18 18 20 26 31 34 39 43 45 46 38 38
31 31 32 33 34 36 36 36 36 36 36 35 35 34 35 39 25 31 25 30 27 26 33 27 20 17 16 16 19 15 14 18 18 20 18 19 17 17 19 23 27 39 34 42 46 45 52
31 32 33 34 35 35 36 36 36 36 36 36 36 33 32 28 29 27 27 29 26 24 36 22 19 16 17 17 22 21 19 19 20 20 19 22 22 22 18 18 19 27 29 36 42 45 49
32 33 33 34 34 36 36 37 37 37 36 37 35 34 30 25 25 24 28 28 23 27 32 21 19 20 21 18 20 20 19 18 23 25 24 22 24 23 19 22 20 21 24 29 34 38 54
32 32 33 33 34 33 35 35 35 35 35 35 35 33 26 25 25 26 28 25 28 27 23 24 24 22 24 24 23 20 23 23 27 33 33 31 24 24 20 25 22 19 21 30 35 36 50
33 33 33 32 33 33 33 34 34 35 35 35 34 30 25 23 23 24 23 25 30 26 25 26 27 28 29 29 28 25 29 31 26 27 37 37 41 22 20 20 23 18 17 22 37 39 42
33 33 31 30 30 32 33 34 34 35 36 36 34 25 25 20 19 18 21 30 31 28 28 32 38 38 36 29 27 30 28 29 29 24 31 36 37 27 22 22 19 24 23 22 37 41 48
32 31 30 29 30 30 31 33 34 34 35 35 32 28 25 19 17 17 25 31 29 28 31 35 38 34 41 38 38 36 33 27 29 29 31 34 51 33 28 27 28 27 26 28 26 39 46
32 30 31 31 30 30 30 31 32 33 32 31 28 29 23 19 16 20 31 31 32 29 31 31 35 40 40 41 39 41 36 39 37 34 33 35 35 39 31 30 31 29 33 29 30 31 43
32 33 32 32 31 31 29 28 29 31 30 26 25 30 21 18 25 25 31 29 27 30 29 32 33 35 37 35 40 41 43 39 39 38 42 37 38 50 47 36 32 32 36 34 40 44 41
33 32 32 30 30 30 29 26 24 26 26 25 27 28 21 19 34 33 31 32 31 30 29 28 30 29 33 37 41 35 34 29 35 35 33 32 34 48 49 39 35 41 41 40 41 44 52
31 32 30 29 28 27 27 25 23 23 23 21 26 32 25 22 25 32 36 38 37 27 29 29 32 29 33 35 33 37 35 35 33 35 30 30 37 43 54 51 47 43 40 41 43 49 52
29 31 29 28 28 27 27 27 25 21 21 19 23 29 26 34 31 31 31 32 34 33 26 27 30 28 32 38 36 38 39 40 41 42 36 32 46 43 47 51 49 52 57 57 55 53 54
30 31 30 29 29 28 27 26 25 21 18 21 28 29 26 33 34 35 32 33 33 31 33 34 29 32 32 37 37 47 46 42 43 38 36 33 49 46 54 50 49 54 52 52 51 55 60
30 30 30 30 30 28 27 26 24 22 15 22 20 23 28 33 34 35 34 32 31 30 30 29 31 35 36 33 34 36 35 39 37 42 41 38 41 45 56 50 50 52 51 49 48 47 48
30 30 30 30 29 30 29 28 26 24 18 19 22 25 31 39 35 35 33 32 36 36 39 34 30 32 27 28 34 35 34 36 34 37 31 37 41 40 50 48 55 41 34 35 39 39 40
32 32 31 31 30 30 30 29 27 24 21 20 20 23 29 37 34 34 33 34 33 32 31 30 29 25 25 29 33 38 36 34 30 26 25 23 31 35 39 43 45 46 38 37 39 38 36
35 34 33 32 32 32 31 29 27 23 21 20 19 17 23 33 34 30 33 29 34 32 32 26 23 22 22 26 28 35 36 36 30 27 24 22 24 30 33 35 36 30 32 31 31 34 35
38 36 35 33 32 32 30 29 26 22 20 19 19 14 21 31 29 26 30 31 22 22 25 22 21 22 21 24 28 31 31 24 30 33 30 34 34 32 31 30 27 32 37 32 33 35 37
39 38 36 33 31 31 30 31 28 22 21 18 18 15 19 26 28 23 22 23 22 21 25 19 23 23 19 21 23 23 25 27 29 28 35 32 29 28 26 26 27 35 27 27 29 30 29
37 36 34 31 31 31 30 30 26 22 18 13 18 15 18 20 24 21 21 23 23 19 18 17 19 19 19 22 22 26 28 30 34 33 25 26 26 29 28 27 29 28 27 28 28 27 24
Wind_Direction
14 5 356 353 351 346 340 336 332 330 328 328 328 328 326 324 323 322 322 321 322 324 327 337 347 346 349 342 338 348 338 338 340 343 342 330 306 304 302 299 307 306 312 313 306 313 305
359 5 6 3 352 346 345 344 342 339 334 331 330 329 328 327 324 322 321 323 324 324 328 331 337 341 348 339 352 346 338 339 339 336 339 333 315 296 296 295 299 304 305 312 314 315 315
7 360 357 355 354 353 351 347 343 341 339 338 336 333 330 328 324 321 319 320 324 329 333 338 341 338 337 337 345 340 341 337 337 334 327 330 318 304 301 300 303 301 300 305 306 309 310
25 16 8 2 357 355 350 346 343 342 340 338 336 335 333 330 327 323 317 319 326 334 339 345 346 339 336 338 341 338 337 335 338 334 330 325 325 314 299 303 302 298 298 295 304 301 303
19 15 9 11 6 6 2 356 350 344 339 338 336 334 332 329 326 320 318 319 332 343 351 352 347 344 334 356 345 348 342 334 332 333 331 328 324 317 311 295 291 294 289 291 292 291 300
1 359 355 352 350 352 352 352 349 347 343 339 337 334 332 329 327 324 323 328 345 348 353 355 345 338 342 337 343 345 345 333 326 325 320 317 314 306 307 296 286 289 287 289 288 292 286
354 354 353 352 350 347 343 342 343 341 340 340 339 336 332 329 328 332 337 345 336 335 338 331 328 325 328 334 337 333 337 335 328 320 313 307 303 296 296 291 291 288 283 280 286 294 284
352 349 347 346 345 342 340 339 337 335 335 335 335 333 332 329 330 339 347 343 342 336 321 326 313 312 322 329 320 325 331 321 317 308 308 309 289 296 296 294 292 288 284 281 286 289 285
347 344 343 341 338 336 336 335 333 332 332 331 331 332 332 330 333 344 344 342 345 338 326 324 331 327 329 334 329 331 342 329 318 312 304 291 301 312 305 297 291 289 284 284 283 289 284
344 342 340 338 337 333 331 330 330 329 329 329 329 330 331 329 335 333 337 340 342 340 324 329 338 348 349 341 331 341 335 328 325 321 316 311 305 293 291 294 296 290 292 287 283 281 277
341 339 337 336 334 332 330 329 328 328 328 328 328 329 331 337 328 331 332 337 338 339 318 336 336 351 346 331 329 329 331 319 312 316 320 316 317 315 307 296 302 301 302 292 286 280 280
339 337 336 333 331 329 328 327 327 328 327 326 326 326 329 332 330 332 331 332 336 323 315 329 335 333 330 330 326 327 325 323 322 312 302 297 312 313 307 315 312 314 312 302 293 285 274
337 337 336 336 330 329 329 329 329 329 329 328 325 323 325 326 324 328 329 330 319 310 330 324 325 327 325 322 322 319 315 310 308 308 307 308 292 302 303 306 308 302 307 304 293 283 280
332 333 334 334 334 333 331 330 330 329 329 326 324 323 322 320 323 325 326 321 305 315 311 325 324 320 316 320 315 310 311 305 301 301 303 303 301 295 295 289 305 294 284 294 295 290 291
331 332 333 334 334 332 331 330 329 329 327 325 324 325 320 325 326 327 317 301 306 316 318 313 312 309 312 314 314 316 311 310 311 303 297 303 299 310 299 299 289 300 283 282 294 294 290
332 332 332 332 330 330 331 331 329 330 328 328 324 321 319 328 328 320 304 298 304 315 311 313 306 308 306 305 309 312 309 315 317 318 313 300 295 302 300 298 290 288 303 294 286 292 288
334 335 333 329 328 326 327 330 331 333 334 335 328 321 333 336 331 312 297 303 308 310 313 307 304 302 303 305 303 302 300 307 306 307 311 308 296 294 297 291 289 286 282 287 291 284 288
330 330 330 331 330 328 327 328 331 335 337 337 329 317 342 340 314 311 303 306 316 312 312 308 308 305 302 304 303 300 298 296 308 309 301 299 299 289 287 296 292 284 282 274 278 284 284
330 327 329 330 330 330 331 332 333 337 341 335 324 320 332 330 308 305 307 304 304 306 308 309 308 310 311 305 304 307 307 311 311 311 306 310 298 294 294 292 284 284 282 279 279 280 277
327 329 328 330 329 330 331 331 332 335 339 338 325 316 325 322 313 310 309 307 305 311 309 309 306 307 306 304 305 305 304 310 311 310 310 308 295 289 286 287 294 293 292 289 281 274 274
326 326 327 326 327 326 325 327 326 326 333 332 323 315 318 312 311 309 307 309 308 310 311 314 311 305 306 305 305 302 304 307 307 308 303 299 292 291 290 290 289 286 284 281 279 280 277
319 322 323 323 323 323 321 321 323 320 325 318 313 314 320 311 312 310 308 310 302 305 305 307 303 307 307 302 303 304 304 307 304 310 305 300 293 294 290 292 292 287 285 283 280 277 276
317 318 319 320 321 319 319 317 317 318 311 314 316 314 310 309 309 306 305 308 310 314 311 309 308 309 307 306 310 310 308 305 302 302 301 301 297 295 290 295 295 286 284 284 285 281 283
314 314 314 315 315 316 314 314 310 308 301 303 309 313 308 303 305 305 308 306 303 305 303 308 311 308 314 320 316 312 308 304 303 302 300 298 295 296 292 295 288 298 303 296 292 294 296
309 309 310 311 311 312 312 310 308 303 302 294 302 305 305 301 304 305 306 308 308 309 308 308 311 315 319 320 316 314 314 314 316 315 317 306 308 303 292 290 294 295 303 299 293 293 309
303 304 306 307 308 309 310 308 306 299 299 297 294 297 303 303 301 306 306 306 305 309 310 309 317 321 323 318 317 311 312 315 316 321 327 324 319 311 303 297 298 311 312 308 300 296 314
300 300 301 302 304 306 307 308 305 295 294 294 296 288 300 300 303 304 302 308 313 313 314 320 322 323 324 316 311 310 311 319 316 316 316 317 314 308 303 300 305 315 309 315 295 296 312
300 299 298 298 301 305 305 307 304 290 290 288 295 287 294 300 303 308 308 303 305 306 307 317 321 323 323 319 319 319 317 321 317 319 317 315 313 313 310 307 304 325 325 320 312 316 319
300 301 298 298 300 304 302 304 307 302 288 279 292 297 302 301 310 314 309 310 301 304 310 312 317 320 324 319 320 319 314 316 312 311 325 315 318 307 307 306 317 329 333 325 320 322 326